Location: Marcé
(47.5801°N, 0.3280°W)
Time: 07:06:59
(UTC+01:00)

Altair - Pass Details

Date: 17 December 2021
Orbit: 1501 x 1683 km, 47.2° (Epoch: 21 January)

Event Time Altitude Azimuth Distance (km) Brightness Sun altitude
Rises 12:53:21 0° 226° (SW) 4,881 10.8 19.0°
Reaches altitude 10° 12:56:36 10° 222° (SW) 3,876 10.5 19.0°
Maximum altitude 13:06:06 55° 148° (SSE) 1,874 8.8 19.0°
Drops below altitude 10° 13:15:16 10° 75° (ENE) 3,748 9.4 18.9°
Sets 13:18:21 0° 71° (ENE) 4,710 9.8 18.9°
